Terug naar catalogus

STARLINK-35412

ActiefCommunicatieSSO
NORAD 65797·PAYLOAD·🇺🇸 United States

Gelanceerd Sep 26, 2025 vanaf Vandenberg Space Force Base

Loading…

Volgende Passages (komende 24 uur)

TLE

VersSource: CelesTrak SupGP

Epoch: Sep 15, 2026, 02:51 UTC

1 65797C 25218G   26258.11923611  .00011199  00000+0  34761-3 0  2581
2 65797  97.2847 115.6119 0001761 100.7196 184.1653 15.33436971    17

Volg STARLINK-35412 in realtime met AllMySat

Download on the App Store